Regional Weather Roundup
Issued by NWS Wakefield, VA

Home | Current Version | Previous Version | Graphics & Text | Print | Product List | Glossary On
Versions: 1 2 3 4 5 6 7 8 9 10 11 12 13 14 15 16 17 18 19 20 21 22 23 24 25 26 27 28 29 30 31 32 33 34 35 36 37 38 39 40 41 42 43 44 45 46 47 48 49 50
875
ASUS41 KAKQ 170615
RWRAKQ

REGIONAL WEATHER ROUNDUP
NATIONAL WEATHER SERVICE WAKEFIELD VA
100 AM EST WED JAN 17 2018

Note: "fair" indicates few or no clouds below 12,000 feet with no
significant weather and/or obstructions to visibility. * = Denotes
station may not report precipitation (e.g., rain,snow,etc.),
thunder or fog.

VAZ042-051-052>054-056-170700-
NORTHERN VIRGINIA

CITY           SKY/WX    TMP DP  RH WIND       PRES   REMARKS
WASH NATIONAL  FLURRIES  35  29  78 NW12      30.34F
DULLES         CLOUDY    31  29  92 N7        30.32F
FORT BELVOIR   FAIR      36  28  75 NW10      30.32F
QUANTICO       NOT AVBL
FREDERICKSBRG* RAIN      35  32  90 N8        30.31F
STAFFORD*      LGT SNOW  32  32  99 N6        30.36F
WARRENTON      FLURRIES  33  26  75 N5        30.31F
CULPEPER*      CLOUDY    33  27  79 N6        30.33F
MANASSAS*      MIX PCPN  32  28  85 N10       30.33F WCI  24
LEESBURG*      CLOUDY    32  30  93 N8        30.33F
WINCHESTER     CLOUDY    28  19  69 NW12G18   30.34F WCI  18
FRONT ROYAL*   CLOUDY    30  23  74 MISG      30.32F
LURAY*         CLOUDY    30  28  93 NE9       30.30S
$$

VAZ048-049-060>072-079>083-170700-
CENTRAL AND SOUTH CENTRAL VIRGINIA

CITY           SKY/WX    TMP DP  RH WIND       PRES   REMARKS
RICHMOND       CLOUDY    34  28  79 CALM      30.29F
CHESTERFIELD*  NOT AVBL
PETERSBURG*    FAIR      30  25  80 CALM      30.30F
HANOVER        CLOUDY    33  28  81 CALM      30.31F
TAPPAHANNOCK*  FAIR      32  31  94 CALM      30.31F
QUINTON*       CLOUDY    32  28  87 NW3       30.29F
CHARLOTTSVILLE CLOUDY    34  21  59 N5        30.28F
GORDONSVILLE*  MOCLDY    34  27  75 N7        30.28F
ORANGE*        MOCLDY    32  28  86 CALM      30.30F
LOUISA*        MOCLDY    33  23  67 NE5       30.32F
BUMPASS*       CLOUDY    33  25  72 CALM      30.28F
FARMVILLE*     CLOUDY    33  25  72 CALM      30.27F
CREWE*         FAIR      32  28  86 CALM      30.27F
FORT PICKETT*  FAIR      34  22  61 MISG      30.27F
CHASE CITY*    CLOUDY    33  23  66 CALM      30.27F
CLARKSVILLE*   CLOUDY    32  28  86 CALM      30.27F
SOUTH HILL*    FAIR      29  27  89 CALM      30.34F
LAWRENCEVILLE* FAIR      31  23  71 CALM      30.28F
EMPORIA*       FAIR      30  27  86 CALM      30.30F
$$

VAZ088>098-170700-
SOUTHEAST VIRGINIA

CITY           SKY/WX    TMP DP  RH WIND       PRES   REMARKS
NORFOLK        FAIR      32  32 100 CALM      30.29F FOG
VIRGINIA BEACH CLOUDY    35  27  72 CALM      30.28F
NORFOLK NAVAL  MOCLDY    32  29  88 CALM      30.30F FOG
WEST POINT*    FAIR      30  29  94 CALM      30.32F
SALUDA*        MOCLDY    29  29 100 CALM      30.30F
NEWPORT NEWS   FAIR      31  28  89 CALM      30.29F
LANGLEY AFB    MOCLDY    31  30  98 CALM      30.28F
FORT EUSTIS    FAIR      30  28  91 CALM      30.26F
WILLIAMSBURG*  FAIR      30  27  86 CALM      30.30F
HR EXEC AP*    FAIR      26  25  96 CALM      30.30F
FRANKLIN*      FAIR      28  28  96 CALM      30.30F
US460-WAKEFLD  FAIR      29  28  96 CALM      30.30F
$$

VAZ020-022-025-037-045-170700-
WEST CENTRAL AND SOUTHWEST VIRGINIA

CITY           SKY/WX    TMP DP  RH WIND       PRES   REMARKS
STAUNTON*      CLOUDY    30  24  79 NE12      30.29S WCI  20
WAYNESBORO*    CLOUDY    30  23  74 N7        30.25F
HOT SPRINGS VA HVY SNOW  21  20  98 W10       30.14F VSB<1/4 WCI   9
LYNCHBURG      CLOUDY    34  20  56 NW3       30.26F
DANVILLE       CLOUDY    33  26  75 CALM      30.27F
SOUTH BOSTON*  CLOUDY    32  23  70 CALM      30.27F
MARTINSVILLE   CLOUDY    31  24  72 CALM      30.28F
ROANOKE        CLOUDY    33  21  61 NW12      30.29F WCI  24
BLACKSBURG     CLOUDY    26  19  76 W8        30.28F
DUBLIN*        CLOUDY    25  20  80 NW13      30.28F WCI  14
MARION*        CLOUDY    22  15  76 NW5       30.27F
HILLSVILLE*    CLOUDY    26  21  82 N13       30.20F WCI  14
RICHLANDS*     FLURRIES  13  10  88 NW8       30.29F
WISE*          FLURRIES  12  10  92 N5        30.32S
ABINGDON*      LGT SNOW  21  16  83 N6        30.32S
$$

MDZ021>025-VAZ099-100-170700-
SOUTHERN MARYLAND AND THE DELMARVA PENINSULA

CITY           SKY/WX    TMP DP  RH WIND       PRES   REMARKS
PATUXENT RIVER NOT AVBL
BAY BRIDGE APT CLOUDY    32  30  93 NW3       30.30F FOG
LEONARDTOWN    CLOUDY    32  32 100 CALM      30.31F
DOVER          CLOUDY    37  37 100 NW7       30.28F
GEORGETOWN     NOT AVBL
EASTON         FAIR      34  30  85 CALM      30.33F
CAMBRIDGE        N/A     32  30  93 CALM      30.29F
SALISBURY      MOCLDY    36  34  92 NW3       30.28F
OCEAN CITY     FOG       38  38 100 NW7       30.28F VSB 1/2
WALLOPS ISLAND FAIR      34  32  92 W5        30.30F
ACCOMACK*      FAIR      30  29  98 CALM      30.29F
$$

NCZ012>017-030>032-170700-
NORTH CENTRAL AND EASTERN NORTH CAROLINA

CITY           SKY/WX    TMP DP  RH WIND       PRES   REMARKS
ROANOKE RAPIDS FAIR      30  25  80 CALM      30.29F
RALEIGH        CLOUDY    36  24  62 CALM      30.28F
ELIZABETH CITY FAIR      31  31 100 CALM      30.30S FOG
AHOSKIE*       FAIR      28  27  98 CALM      30.30S
EDENTON*       NOT AVBL
CURRITUCK*     FAIR      29  29 100 CALM      30.30F FOG
KILL DEVIL HLS FAIR     N/A N/A N/A CALM      30.28F FOG
MANTEO         FAIR      30  30 100 CALM      30.29F FOG
CAPE HATTERAS  FAIR      35  34  96 N3        30.29F
TARBORO*       NOT AVBL
GOLDSBORO      FAIR      30  25  81 CALM      30.27F
WASHINGTON     FAIR      32  30  94 CALM      30.30F
GREENVILLE     FAIR      30  28  93 CALM      30.30F
NEW BERN       FAIR      30  28  92 CALM      30.30F
WILMINGTON     FAIR      33  31  92 CALM      30.29F
$$

VAZ048-170700-
ELSEWHERE

CITY           SKY/WX    TMP DP  RH WIND       PRES   REMARKS
HARRISBURG PA  CLOUDY    31  30  96 NW7       30.32S FOG
BALTIMORE      CLOUDY    33  28  81 NW8       30.31F
ANNAPOLIS      CLOUDY    35  32  88 NW6       30.30F
ANDREWS AFB    FAIR      35  27  72 NW12      30.30F
PHILADELPHIA   LGT RAIN  38  32  79 NW9       30.30F
HENDERSON NC   FAIR      34  20  57 CALM      30.27F
GREENSBORO     CLOUDY    37  24  59 CALM      30.23F
ROCKY MOUNT    NOT AVBL
$$

VAZ100-170700-
MARINE

STATION/POSITION TIME  TEMP    WIND        PRES    WAVE   SWELL
                       AIR SEA DIR/SP/G            HT/PER HT/PER
                 (UTC) (F)     (DEG/KT/KT) (MB)    (FT/S) (FT/S)
BRANDYWINE LGT   0548   36     340/  9/ 10 1025.8F
CAPE MAY NJ      0542   40 34   CALM  /  1 1025.0F
LEWES DE         0548   35 35  310/  7/  8 1025.6F
15NM E FENWICK I 0550   44 43  340/  4/  4 1025.4F   5/ 9   5/ 9
OCEAN-CITY-INLET 0548   38 35  320/  7/  8 1025.7F
WACHAPREAGUE VA  0548   32 36   CALM  /  4 1025.8F
THOMAS POINT MD  0600   33 32  320/  5/  6   N/A
GOOSES REEF MD   0600   33 33  310/  4/  4 1026.5    0
COVE POINT MD    0548   33     350/  6/  6 1026.8F
SOLOMONS ISLAND  0548   33 35  330/  5/  5 1025.8F
BISHOPS HEAD MD  0548   33 32  300/  5/  5 1026.3F
PINEY POINT MD   0536          330/  5/  5   N/A
POTOMAC MD       0600   33 34  310/  4/  6 1025.4    0
CAMBRIDGE MD     0548   33 32              1026.7F
LEWISETTA VA     0536   31 33  300/  1/  2 1026.1F
RAPPAHANNOCK LGT 0536          300/  4/  4 1026.7F
STINGRAY PT      0600   33 34  330/  2/  4 1028.4    0
YORK RVR RNG VA  0536   33     300/  2/  2 1026.6F
YORKTOWN VA      0536   32 35   CALM  /  1 1025.8F
DOMINION TERM VA 0536   34        CALM     1026.2F
KIPTOPEKE VA     0536      35  360/  4/  4   N/A
CAPE HENRY VA    0536   36     250/  3/  4   N/A
WILLOUBY STN VA  0536          270/  4/  4 1025.6F
S CRANEY ISL VA  0536   33     280/  1/  2 1025.9F
CAPE HENRY BUOY  0600      42                N/A     4/11   2/11
1ST LANDING BUOY 0600   34 36  310/  4/  6 1025.7    2/ 8
CAPE CHARLES BUO 0551      38                N/A     4/11   3/11
64NM E OF VA BCH 0550   45 61  300/ 12/ 16 1025.4F   8/11   7/11
DUCK PIER NC     0536   35 39  280/  5/  5 1025.3F
44100 DUCK FRF   0545      42                N/A     5/12   3/12
44056 DUCK FRF   0600      38                N/A     5/11   3/11
OREGON INLET NC  0536   35 42  190/  3/  4 1026.0F
HATTERAS NC      0536   40 47   CALM  /  2 1025.5F
DIAMOND SHLS NC  0600   52 69  330/ 10/ 12 1025.6
CAPE LOOKOUT NC  0600          340/  4/  4 1025.5F
$$




USA.gov is the U.S. government's official web portal to all federal, state and local government web resources and services.